BADR-5

Last updated on Wed Sep 09 2026 00:02:59 GMT+0000 (Coordinated Universal Time)

1 36592U 10025A 26251.52239562 .00000133 00000+0 00000+0 0 9998 2 36592 0.0423 127.1297 0007733 84.9405 354.0598 1.00270563 54057
UTC large
Height (km)
Speed (km/s)
/
Latitude / Longitude
Inclination (degrees)
Orbital Period (minutes)
Azimuth
Elevation
Range (km)
Doppler Factor

Next 0 passes for location: London (51.5072 / 0.1276)

No passes found over London.
BADR-5